• In Hungary
  • List of Countries
  • For 7 days
  • Water Temperature
  • Satellite Maps
  • Weather Map
  • News
  • Weather Widgets
  • user-avatar
    Login

    Hourly Weather Cleveland

    Today, 17 October, Tuesday

    Time Temperature Precipitation Wind Pressure Humidity
    00:00 +8°C° 0 mm 3 mps 752 mmHg 65%
    01:00 +7°C° 0 mm 4 mps 752 mmHg 66%
    02:00 +6°C° 0 mm 4 mps 752 mmHg 67%
    03:00 +6°C° 0 mm 4 mps 752 mmHg 69%
    04:00 +6°C° 0 mm 5 mps 752 mmHg 71%
    05:00 +6°C° 0 mm 5 mps 752 mmHg 73%
    06:00 +6°C° 0 mm 5 mps 752 mmHg 74%
    07:00 +5°C° 0 mm 6 mps 752 mmHg 76%
    08:00 +8°C° 0 mm 6 mps 752 mmHg 69%
    09:00 +10°C° 0 mm 7 mps 752 mmHg 63%
    10:00 +12°C° 0 mm 7 mps 752 mmHg 57%
    11:00 +14°C° 0 mm 7 mps 752 mmHg 54%
    12:00 +16°C° 0 mm 7 mps 751 mmHg 51%
    13:00 +17°C° 0 mm 7 mps 751 mmHg 48%
    14:00 +17°C° 0 mm 7 mps 751 mmHg 49%
    15:00 +17°C° 0 mm 7 mps 750 mmHg 51%
    16:00 +17°C° 0 mm 7 mps 750 mmHg 52%
    17:00 +16°C° 0 mm 7 mps 750 mmHg 56%
    18:00 +14°C° 0 mm 7 mps 750 mmHg 61%
    19:00 +13°C° 0 mm 6 mps 751 mmHg 65%
    20:00 +13°C° 0 mm 6 mps 751 mmHg 66%
    21:00 +11°C° 0 mm 6 mps 751 mmHg 67%
    22:00 +11°C° 0 mm 6 mps 751 mmHg 69%
    23:00 +10°C° 0 mm 6 mps 752 mmHg 70%

    Tomorrow, 18 October, Wednesday

    Time Temperature Precipitation Wind Pressure Humidity
    00:00 +10°C° 0 mm 5 mps 752 mmHg 71%
    01:00 +9°C° 0 mm 5 mps 752 mmHg 72%
    02:00 +9°C° 0 mm 5 mps 752 mmHg 73%
    03:00 +9°C° 0 mm 5 mps 752 mmHg 74%
    04:00 +8°C° 0 mm 5 mps 752 mmHg 74%
    05:00 +8°C° 0 mm 5 mps 752 mmHg 75%
    06:00 +8°C° 0 mm 5 mps 752 mmHg 75%
    07:00 +8°C° 0 mm 5 mps 753 mmHg 76%
    08:00 +10°C° 0 mm 5 mps 753 mmHg 70%
    09:00 +13°C° 0 mm 5 mps 753 mmHg 65%
    10:00 +15°C° 0 mm 5 mps 753 mmHg 59%
    11:00 +16°C° 0 mm 5 mps 752 mmHg 55%
    12:00 +17°C° 0 mm 5 mps 752 mmHg 51%
    13:00 +20°C° 0 mm 5 mps 752 mmHg 47%
    14:00 +20°C° 0 mm 5 mps 751 mmHg 49%
    15:00 +20°C° 0 mm 5 mps 751 mmHg 50%
    16:00 +20°C° 0 mm 5 mps 750 mmHg 52%
    17:00 +17°C° 0 mm 5 mps 750 mmHg 57%
    18:00 +16°C° 0 mm 5 mps 750 mmHg 61%
    19:00 +14°C° 0 mm 5 mps 750 mmHg 65%
    20:00 +13°C° 0 mm 5 mps 750 mmHg 65%
    21:00 +13°C° 0 mm 5 mps 750 mmHg 65%
    22:00 +13°C° 0 mm 6 mps 750 mmHg 66%
    23:00 +11°C° 0 mm 6 mps 750 mmHg 66%

    Day after tomorrow, 19 October, Thursday

    Time Temperature Precipitation Wind Pressure Humidity
    00:00 +11°C° 0 mm 6 mps 750 mmHg 67%
    01:00 +11°C° 0 mm 6 mps 750 mmHg 68%
    02:00 +10°C° 0 mm 6 mps 750 mmHg 71%
    03:00 +10°C° 0 mm 6 mps 750 mmHg 73%
    04:00 +10°C° 0 mm 6 mps 749 mmHg 76%
    05:00 +10°C° 0 mm 6 mps 749 mmHg 78%
    06:00 +9°C° 0 mm 6 mps 749 mmHg 80%
    07:00 +9°C° 0 mm 7 mps 749 mmHg 82%
    08:00 +11°C° 0 mm 7 mps 750 mmHg 77%
    09:00 +14°C° 0 mm 7 mps 750 mmHg 71%
    10:00 +16°C° 0 mm 7 mps 750 mmHg 65%
    11:00 +17°C° 0 mm 7 mps 749 mmHg 62%
    12:00 +20°C° 0 mm 7 mps 749 mmHg 58%
    13:00 +21°C° 0 mm 7 mps 749 mmHg 54%
    14:00 +21°C° 0 mm 6 mps 749 mmHg 55%
    15:00 +21°C° 0 mm 6 mps 748 mmHg 56%
    16:00 +21°C° 0 mm 6 mps 748 mmHg 58%
    17:00 +20°C° 0 mm 5 mps 749 mmHg 63%
    18:00 +18°C° 0 mm 4 mps 749 mmHg 68%
    19:00 +17°C° 0 mm 4 mps 749 mmHg 74%
    20:00 +15°C° 0 mm 4 mps 750 mmHg 76%
    21:00 +15°C° 0 mm 4 mps 750 mmHg 79%
    22:00 +14°C° 0 mm 4 mps 750 mmHg 82%
    23:00 +14°C° 0 mm 3 mps 750 mmHg 81%

    20 October, Friday

    Time Temperature Precipitation Wind Pressure Humidity
    00:00 +14°C° 0 mm 3 mps 750 mmHg 80%
    01:00 +13°C° 0 mm 3 mps 751 mmHg 79%
    02:00 +14°C° 0 mm 2 mps 751 mmHg 77%
    03:00 +14°C° 0 mm 2 mps 751 mmHg 75%
    04:00 +13°C° 0 mm 2 mps 751 mmHg 73%
    05:00 +13°C° 0 mm 1 mps 751 mmHg 72%
    06:00 +12°C° 0 mm 1 mps 752 mmHg 72%
    07:00 +12°C° 0 mm 1 mps 752 mmHg 72%
    08:00 +14°C° 0 mm 1 mps 752 mmHg 65%
    09:00 +16°C° 0 mm 1 mps 753 mmHg 58%
    10:00 +19°C° 0 mm 1 mps 753 mmHg 51%
    11:00 +20°C° 0 mm 1 mps 753 mmHg 46%
    12:00 +21°C° 0 mm 1 mps 752 mmHg 42%
    13:00 +23°C° 0 mm 1 mps 752 mmHg 37%
    14:00 +22°C° 0 mm 1 mps 752 mmHg 38%
    15:00 +22°C° 0 mm 1 mps 751 mmHg 40%
    16:00 +22°C° 0 mm 1 mps 751 mmHg 42%
    17:00 +20°C° 0 mm 1 mps 751 mmHg 47%
    18:00 +18°C° 0 mm 2 mps 751 mmHg 51%
    19:00 +16°C° 0 mm 2 mps 751 mmHg 56%
    20:00 +16°C° 0 mm 2 mps 751 mmHg 58%
    21:00 +14°C° 0 mm 3 mps 751 mmHg 60%
    22:00 +14°C° 0 mm 3 mps 751 mmHg 62%
    23:00 +14°C° 0 mm 3 mps 751 mmHg 65%

    21 October, Saturday

    Time Temperature Precipitation Wind Pressure Humidity
    00:00 +13°C° 0 mm 4 mps 751 mmHg 67%
    01:00 +13°C° 0 mm 4 mps 751 mmHg 70%
    02:00 +13°C° 0 mm 4 mps 751 mmHg 73%
    03:00 +13°C° 0 mm 4 mps 751 mmHg 76%
    04:00 +12°C° 0 mm 4 mps 751 mmHg 78%
    05:00 +12°C° 0 mm 4 mps 751 mmHg 81%
    06:00 +12°C° 0 mm 4 mps 751 mmHg 83%
    07:00 +12°C° 0 mm 4 mps 751 mmHg 85%
    08:00 +14°C° 0 mm 4 mps 751 mmHg 79%
    09:00 +17°C° 0 mm 4 mps 751 mmHg 74%
    10:00 +19°C° 0 mm 4 mps 751 mmHg 68%
    11:00 +20°C° 0 mm 4 mps 751 mmHg 63%
    12:00 +21°C° 0 mm 4 mps 750 mmHg 58%
    13:00 +23°C° 0 mm 4 mps 750 mmHg 53%
    14:00 +23°C° 0 mm 4 mps 750 mmHg 54%
    15:00 +23°C° 0 mm 4 mps 750 mmHg 55%
    16:00 +24°C° 0 mm 3 mps 750 mmHg 56%
    17:00 +22°C° 0 mm 4 mps 750 mmHg 59%
    18:00 +20°C° 0 mm 4 mps 750 mmHg 63%
    19:00 +19°C° 0 mm 4 mps 750 mmHg 67%
    20:00 +17°C° 0 mm 5 mps 750 mmHg 66%
    21:00 +17°C° 0 mm 5 mps 749 mmHg 65%
    22:00 +17°C° 0 mm 6 mps 749 mmHg 65%
    23:00 +16°C° 0 mm 5 mps 749 mmHg 66%

    22 October, Sunday

    Time Temperature Precipitation Wind Pressure Humidity
    00:00 +15°C° 0 mm 5 mps 749 mmHg 67%
    01:00 +14°C° 0 mm 5 mps 749 mmHg 68%
    02:00 +14°C° 0 mm 5 mps 749 mmHg 69%
    03:00 +14°C° 0 mm 6 mps 748 mmHg 69%
    04:00 +14°C° 0 mm 6 mps 748 mmHg 69%
    05:00 +14°C° 0 mm 6 mps 748 mmHg 70%
    06:00 +14°C° 0 mm 6 mps 748 mmHg 70%
    07:00 +12°C° 0 mm 7 mps 749 mmHg 71%
    08:00 +15°C° 0 mm 7 mps 748 mmHg 66%
    09:00 +17°C° 0 mm 7 mps 748 mmHg 62%
    10:00 +20°C° 0 mm 7 mps 748 mmHg 57%
    11:00 +21°C° 0 mm 7 mps 747 mmHg 54%
    12:00 +23°C° 0 mm 7 mps 746 mmHg 51%
    13:00 +24°C° 0 mm 7 mps 746 mmHg 47%
    14:00 +24°C° 0 mm 7 mps 745 mmHg 49%
    15:00 +24°C° 0 mm 6 mps 745 mmHg 51%
    16:00 +24°C° 0 mm 6 mps 744 mmHg 52%
    17:00 +23°C° 0 mm 6 mps 744 mmHg 53%
    18:00 +22°C° 0 mm 7 mps 744 mmHg 53%
    19:00 +21°C° 0 mm 7 mps 744 mmHg 54%
    20:00 +21°C° 0.1 mm 6 mps 744 mmHg 56%
    21:00 +21°C° 0.1 mm 6 mps 744 mmHg 58%
    22:00 +20°C° 0.1 mm 6 mps 744 mmHg 60%
    23:00 +20°C° 0.9 mm 5 mps 744 mmHg 66%
    Show more